Location: Wiesbaden
(50.0830°N, 8.2500°E)
Time: 22:28:24
(UTC+01:00)

ISS - Pass Details

Date: 10 November 2019
Orbit: 412 x 421 km, 51.6° (Epoch: 15 November)

Event Time Altitude Azimuth Distance (km) Brightness Sun altitude
Exits shadow 06:33:35 10° 256° (WSW) 1,482 -1.5 -9.5°
Maximum altitude 06:35:25 15° 222° (SW) 1,253 -1.6 -9.2°
Drops below altitude 10° 06:37:21 10° 187° (S) 1,497 -0.8 -8.9°
Sets 06:40:07 0° 162° (SSE) 2,354 0.6 -8.5°
